Location: Barcelona
(41.3830°N, 2.1830°E)
Time: 01:16:44
(UTC+02:00)

ISS - Pass Details

Date: 16 July 2019
Orbit: 409 x 418 km, 51.6° (Epoch: 23 July)

Event Time Altitude Azimuth Distance (km) Brightness Sun altitude
Rises 03:05:59 0° 303° (WNW) 2,348 0.2 -25.2°
Reaches altitude 10° 03:08:49 10° 329° (NNW) 1,483 -0.5 -25.0°
Maximum altitude 03:10:44 14° 4° (N) 1,248 -0.5 -24.9°
Drops below altitude 10° 03:12:38 10° 39° (NE) 1,480 -0.1 -24.8°
Sets 03:15:27 0° 66° (ENE) 2,339 0.7 -24.6°
